* Astronomy

Members Login
Post Info TOPIC: SL-4 rocket body re-entry


L

Posts: 131433
Date:
RE: SL-4 rocket body re-entry
Permalink  
 


Update
The SL-4 rocket body re-entered the Earths atmosphere on the 7th April, 2011 @ 09:13 GMT  ± 1 minute.

Inclination: 51.62°
Revolution Number: 41
Predicted Location:  48°N, 252°E



__________________


L

Posts: 131433
Date:
Permalink  
 

Update
The SL-4 rocket body is predicted to re-enter the Earths atmosphere on the 7th April, 2011 @ 11:41 GMT  ± 15 hours.

SL-4 RB
1 37383U 11012B 11096.58029386 .04387600 12224-4 70302-3 0 75
2 37383 051.6241 168.1655 0018323 076.5288 283.7753 16.32293423 246

Period:       88.28 minutes
Inclination: 51.62°
Apogee:     202 km
Perigee:     177 km
Revolution Number: 42
Predicted Location:  43.6°S, 104.7°E



__________________


L

Posts: 131433
Date:
Permalink  
 

A SL-4 rocket body that was launched on the 4th April, 2011, from the Baikonur Cosmodrome, Kazakhstan, for the Soyuz TMA-21 mission is predicted to re-enter the Earths atmosphere on the 7th April, 2011 @ 14:03 GMT  ± 24 hours.

SL-4 RB
1 37383U 11012B 11096.21268845 .03457593 12139-4 74272-3 0 51
2 37383 051.6241 170.2170 0021215 075.0026 285.7613 16.29153965 182

Period:       - minutes
Inclination: 51.62°
Apogee:     - km
Perigee:     - km
Revolution Number: 44
Predicted Location:  14.6°N, 285.3°E



__________________
Page 1 of 1  sorted by
 
Quick Reply

Please log in to post quick replies.



Create your own FREE Forum
Report Abuse
Powered by ActiveBoard